Regional Weather Roundup
Issued by NWS

Home | Current Version | Previous Version | Graphics & Text | Print | Product List | Glossary On
Versions: 1 2 3 4 5 6 7 8 9 10 11 12 13 14 15 16 17 18 19 20 21 22 23 24 25 26 27 28 29 30 31 32 33 34 35 36 37 38 39 40 41 42 43 44 45 46 47 48 49 50
000
ASUS45 KBOU 160807
RWRCO

WEATHER ROUNDUP FOR COLORADO
NATIONAL WEATHER SERVICE DENVER/BOULDER CO
200 AM MDT WED AUG 16 2017

NOTE: "FAIR" INDICATES FEW OR NO CLOUDS BELOW 12000 FEET WITH NO
SIGNIFICANT WEATHER AND/OR OBSTRUCTIONS TO VISIBILITY.

COZ001>005-013-030-031-160900-
...NORTHWEST COLORADO...

CITY           SKY/WX    TMP DP  RH WIND       PRES   REMARKS
CRAIG          FAIR      46  43  89 CALM      30.16R
HAYDEN         FAIR      48  46  93 E7        30.19S
MEEKER         FAIR      50  47  89 NE6       30.16R
RABBIT EARS PA CLOUDY    37  37 100 W7        30.34F
STEAMBOAT SPGS FAIR      47  46  98 NW5       30.18S
WALDEN         MOCLDY    45  39  81 SE6       30.25R
$$

COZ006>008-011-160900-
...WEST CENTRAL VALLEYS...

CITY           SKY/WX    TMP DP  RH WIND       PRES   REMARKS
GRAND JUNCTION FAIR      62  44  51 CALM      30.03S
MONTROSE       MOCLDY    58  36  43 SE7       30.11S
EAGLE          LGT RAIN  58  45  62 NE5       30.18S
RIFLE          CLOUDY    61  47  59 CALM      30.10R
DELTA          NOT AVBL
NUCLA          FAIR      57  32  38 E7        30.14F
$$

COZ017>023-064>068-160900-
...SOUTHWEST COLORADO...

CITY           SKY/WX    TMP DP  RH WIND       PRES   REMARKS
DURANGO        FAIR      51  34  52 N6        30.15F
CORTEZ         FAIR      47  36  65 NE5       30.11S
PAGOSA SPRINGS CLOUDY    53  31  44 CALM      30.22S
TELLURIDE      NOT AVBL
WOLF CREEK PAS FAIR      37  27  65 W6        30.49S
$$

COZ009-010-012-014-032>034-037-058>063-160900-
...CENTRAL COLORADO...

CITY           SKY/WX    TMP DP  RH WIND       PRES   REMARKS
ASPEN          CLOUDY    52  39  61 SW6       30.21R
BUENA VISTA    FAIR      56  31  38 NW5       30.19S
COPPER MTN     CLOUDY    41  32  70 W9        30.44S
BERTHOUD PASS  MOCLDY    32  28  86 NW30G36   30.42F WCI  18
COTTONWOOD PAS CLOUDY    54  23  30 NW5       30.31S
GUNNISON       FAIR      48  39  71 NW3       30.22R
KREMMLING      FAIR      55  46  71 CALM      30.22S
LEADVILLE      CLOUDY    47  31  53 N6        30.32R
MONARCH PASS   CLOUDY    39  27  60 W24       30.53S
SALIDA         FAIR      61  30  30 W12       30.24S
SUNLIGHT       CLOUDY    43  32  65 W6        30.40F
WILKERSON PASS FAIR      43  25  49 NW8       30.40S
$$

COZ069>075-160900-
...SAN LUIS VALLEY/SANGRE DE CRISTO MOUNTAINS...

CITY           SKY/WX    TMP DP  RH WIND       PRES   REMARKS
ALAMOSA        CLOUDY    55  38  52 W5        30.17F
DEL NORTE      MOCLDY    55  32  42 SW9       30.22R
LA VETA PASS   NOT AVBL
SAGUACHE       CLOUDY    55  32  41 NW9       30.21R
$$

COZ035-036-038>040-160900-
...NORTHERN COLORADO FRONT RANGE...

CITY           SKY/WX    TMP DP  RH WIND       PRES   REMARKS
DENVER INTL AP MOCLDY    58  52  80 SW8       30.05S
DMNS CITY PARK   N/A     58  54  88 E8        30.05S
AURORA         MOCLDY    56  52  88 CALM      30.07S
FRONT RANGE AP FAIR      57  54  88 W7        30.06S
ERIE MUNI ARPT FAIR      59  54  84 CALM      30.08R
BOULDER MUN AP FAIR      59  54  82 CALM      30.04R
CENTENNIAL     MOCLDY    56  51  84 S5        30.07S
BROOMFIELD     NOT AVBL
FORT COLLINS   MOCLDY    60  54  80 CALM      30.05R
LONGMONT       FAIR      60  55  81 CALM      30.06R
$$

COZ041-046-047-076>085-087-088-160900-
...PIKES PEAK/PALMER DIVIDE AND SOUTHERN FOOTHILLS...

CITY           SKY/WX    TMP DP  RH WIND       PRES   REMARKS
COLO. SPRINGS  MOCLDY    59  48  67 N7        30.08F
A. F. ACADEMY  FAIR      53  48  85 N8        30.09F
SCHRIEVER AFB  FAIR      55  47  73 NW15      30.07S
CHEYENNE MTN   FAIR      61  44  53 N10       30.05F
ELLICOTT       FAIR     N/A N/A N/A N13       30.06R
FALCON         FAIR      54  46  76 NW9       30.12S
FORT CARSON    FAIR      59  48  68 N12       30.04F
LIMON          CLOUDY    58  51  78 N13       30.00F
MONUMENT HILL  FAIR      48  46  93 W7        30.14S
CANON CITY     CLEAR     64  52  63 CALM      30.03S
WALSENBURG     FAIR      59  52  77 W5        30.09S
TRINIDAD       FAIR      61  48  62 NW8G21    30.08R
$$

COZ042>045-048>051-090-091-160900-
...NORTHEAST COLORADO...

CITY           SKY/WX    TMP DP  RH WIND       PRES   REMARKS
GREELEY ARPT   CLOUDY    59  57  93 CALM      30.04R
AKRON          MOCLDY    60  54  80 W8        30.03R
BURLINGTON     MOCLDY    61  58  90 NE15      29.94F
WRAY           NOT AVBL
YUMA           RAIN      61  55  82 W6        30.00R
STERLING       MOCLDY    61  55  82 CALM      29.99R
HOLYOKE        FAIR      61  59  94 NE9       29.95F
FORT MORGAN    FAIR      58  53  83 W3        30.04R
$$

COZ086-089-092>099-160900-
...SOUTHEAST COLORADO...

CITY           SKY/WX    TMP DP  RH WIND       PRES   REMARKS
PUEBLO         FAIR      65  49  56 N16       29.99R
LA JUNTA       FAIR      65  52  62 NE12      29.97R
LAMAR          FAIR      66  52  60 N15G23    29.91R
SPRINGFIELD      N/A     66  57  72 N16G26    29.95R
$$



USA.gov is the U.S. government's official web portal to all federal, state and local government web resources and services.